Norfolk, NE

7:24 PM CDT on May 22, 2018 (GMT -0500)
Stefan Memorial

Weather History for KOFK - August, 2013

Change the Weather History Date:

Tuesday, August 13, 2013

  Actual Average Record
Temperature  
Mean Temperature 68 °F 74 °F  
Max Temperature 76 °F 85 °F 102 °F (1938)
Min Temperature 59 °F 62 °F 46 °F (1964)
Degree Days  
Heating Degree Days 0 0  
Month to date heating degree days 0 0  
Since 1 June heating degree days 55 34  
Since 1 July heating degree days 13 4  
Cooling Degree Days 3 9  
Month to date cooling degree days 86 122  
Year to date cooling degree days 624 683  
Since 1 June cooling degree days 560 622  
Growing Degree Days 18 (Base 50)    
Moisture  
Dew Point 58 °F    
Average Humidity 72    
Maximum Humidity 93    
Minimum Humidity 50    
Precipitation  
Precipitation 0.00 in 0.12 in 1.08 in (1913)
Month to date precipitation 1.82 1.47  
Year to date precipitation 16.65 18.75  
Snow  
Snow 0.00 in 0.00 in - ()
Month to date snowfall 0.0 0.0  
Since 1 July snowfall 0.0 0.0  
Snow Depth 0.00 in    
Sea Level Pressure  
Sea Level Pressure 30.14 in    
Wind  
Wind Speed 2 mph (ESE)    
Max Wind Speed 10 mph    
Max Gust Speed 14 mph    
Visibility 10 miles    
Events      
T = Trace of Precipitation, MM = Missing Value Source: NWS Daily Summary

Daily Weather History Graph

Daily Weather History Graph

Search for Another Location

Airport or City:

Astronomy

Aug. 13, 2013 Rise Set
Actual Time 6:35 AM CDT 8:32 PM CDT
Civil Twilight 6:05 AM CDT 9:02 PM CDT
Nautical Twilight 5:28 AM CDT 9:39 PM CDT
Astronomical Twilight 4:48 AM CDT 10:19 PM CDT
Moon 1:40 PM CDT (8/13) No Moon Set
Length of Visible Light 14h 57m
Length of Day
13h 56m
Waxing Crescent, 42% of the Moon is Illuminated
Aug 13
Waxing Crescent
Aug 14
First Quarter
Aug 20
Full
Aug 28
Last Quarter
Sep 5
New

Hourly Weather History & Observations

Time (CDT) Temp. Dew Point Humidity Pressure Visibility Wind Dir Wind Speed Gust Speed Precip Events Conditions
12:56 AM 64.9 °F 61.0 °F 87% 30.09 in 10.0 mi Calm Calm - N/A   Clear
1:56 AM 64.9 °F 61.0 °F 87% 30.10 in 10.0 mi ESE 3.5 mph - N/A   Mostly Cloudy
2:56 AM 64.9 °F 62.1 °F 90% 30.09 in 10.0 mi ESE 4.6 mph - N/A   Overcast
3:56 AM 64.9 °F 61.0 °F 87% 30.09 in 10.0 mi Calm Calm - N/A   Overcast
4:56 AM 64.0 °F 61.0 °F 90% 30.10 in 10.0 mi Calm Calm - N/A   Mostly Cloudy
5:56 AM 64.9 °F 57.9 °F 78% 30.12 in 10.0 mi Calm Calm - N/A   Mostly Cloudy
6:56 AM 63.0 °F 59.0 °F 87% 30.13 in 10.0 mi Calm Calm - N/A   Scattered Clouds
7:56 AM 64.0 °F 57.9 °F 80% 30.13 in 10.0 mi ESE 3.5 mph - N/A   Clear
8:56 AM 66.0 °F 57.9 °F 75% 30.14 in 10.0 mi NE 3.5 mph - N/A   Partly Cloudy
9:56 AM 69.1 °F 57.9 °F 68% 30.17 in 10.0 mi Calm Calm - N/A   Mostly Cloudy
10:56 AM 70.0 °F 55.9 °F 61% 30.19 in 10.0 mi SE 3.5 mph - N/A   Mostly Cloudy
11:56 AM 70.0 °F 57.0 °F 63% 30.19 in 10.0 mi Calm Calm - N/A   Scattered Clouds
12:56 PM 71.1 °F 57.0 °F 61% 30.19 in 10.0 mi East 3.5 mph - N/A   Overcast
1:56 PM 72.0 °F 57.0 °F 59% 30.17 in 10.0 mi Variable 3.5 mph - N/A   Scattered Clouds
2:56 PM 73.9 °F 57.0 °F 55% 30.16 in 10.0 mi SE 4.6 mph - N/A   Partly Cloudy
3:56 PM 75.0 °F 55.9 °F 51% 30.14 in 10.0 mi Calm Calm - N/A   Clear
4:56 PM 75.9 °F 57.9 °F 54% 30.13 in 10.0 mi East 3.5 mph - N/A   Partly Cloudy
5:56 PM 75.0 °F 55.9 °F 51% 30.12 in 10.0 mi East 5.8 mph - N/A   Partly Cloudy
6:56 PM 75.0 °F 55.9 °F 51% 30.12 in 10.0 mi SE 5.8 mph - N/A   Clear
7:56 PM 71.1 °F 60.1 °F 68% 30.13 in 10.0 mi South 4.6 mph - N/A   Clear
8:56 PM 64.9 °F 59.0 °F 81% 30.14 in 10.0 mi South 4.6 mph - N/A   Clear
9:56 PM 63.0 °F 59.0 °F 87% 30.14 in 10.0 mi Calm Calm - N/A   Clear
10:56 PM 61.0 °F 57.0 °F 87% 30.16 in 9.0 mi Calm Calm - N/A   Clear
11:56 PM 59.0 °F 57.0 °F 93% 30.17 in 9.0 mi SSE 4.6 mph - N/A   Clear